STARLINK-31755 (59607 NORAD) Tracking and Keplerian Element Data

This shows tracking and keplerian element data for the satellite.

Feedback or suggestion? Click here.




ElementValue
Catalog59607
NameSTARLINK-31755
Epoch Orbit624
Epoch Day159.86741107
Epoch Year2024
RAAN89.0602
Inclination43.0018
Eccentricity0.0001031
Argument of Perigee267.3979
Mean Anonmoly92.676
Mean Motion15.40710485
Decay Rate4.55E-06
L11 59607U 24080G 24159.86741107 .00000455 00000+0 18152-4 0 9990
L22 59607 43.0018 89.0602 0001031 267.3979 92.6760 15.40710485 6245



Live tracking and technical data element details for STARLINK-31755 (NORAD 59607). STARLINK-31755 can be tracked NOW for your location showing map with azimuth and elevation plus other details from your city location.







IsCatalogInMostPopularTable: catalog: 59607, numindb: 11
Update: records affected: 1



GetName: 59607 STARLINK-31755

Hit Count: updated at: Fri, 14 Jun 2024 19:09:14 GMT